Шазуд

Таджикистан     37°42′51″N   72°21′46″E
темп.,
°C
ветер,
м/с
пор.,
м/с
влажн.,
%
обл.,
%
осадки,
мм/ч
давл.,
гПа
погр.,
м
22 октября, пт
пт2223:00−8зюз2294100 1.1 1022129
02:00−8зюз3394100 0.9 1018279
05:00−9зюз3395100 4.3 1018256
08:00−9зюз4495100 1.5 1019326
11:00−9зюз5685100 2.7 1020763
14:00−9зюз568194 0.6 1020991
17:00−14зюз439165 1.1 102831
20:00−21сз2210079 0.1 104412
23 октября, сб
сб2323:00−21с229429 0.1 10459
02:00−22ссв2267100 0.0 10439
05:00−17ссв226060 0.0 103518
08:00−16всв225580 0.0 103379
11:00−12в2241100 0.0 1026483
14:00−10св1224100 0.0 1022797
17:00−11ссз1160100 0.0 102323
20:00−14св3267100 0.0 103012
24 октября, вс
вс2423:00−13всв2270100 0.0 102713
02:00−13св2275100 0.0 102720
05:00−13всв2284100 0.0 102720
08:00−11вюв2290100 0.2 1025152
11:00−8юв227394 0.3 1023688
14:00−7ююв115515 0.4 1021747
17:00−12с2174100 0.4 102410
20:00−13ссв1278100 0.0 102812
25 октября, пн
пн2523:00−13св1177100 0.0 102816
02:00−16св228529 0.0 103310
05:00−16всв22845 0.0 103410
08:00−13всв22815 0.0 103041
11:00−8юв22630 0.0 1024331
14:00−6зюз12500 0.0 1021729
17:00−12сз11710 0.0 102510
20:00−16св22690 0.0 103311
26 октября, вт
вт2623:00−16св22606 0.0 103410
02:00−16св226189 0.0 10339
05:00−16св226176 0.0 10339
08:00−13всв2264100 0.0 102930
11:00−8юв1141100 0.0 1023307
14:00−6з22505 0.0 1021662
17:00−12сз117211 0.0 102517
20:00−15ссв22740 0.0 103312